Regional Weather Roundup
Issued by NWS Northern Indiana

Home | Current Version | Previous Version | Text Only | Print | Product List | Glossary On
Versions: 1 2 3 4 5 6 7 8 9 10 11 12 13 14 15 16 17 18 19 20 21 22 23 24 25 26 27 28 29 30 31 32 33 34 35 36 37 38 39 40 41 42 43 44 45 46 47 48 49 50
000
ASUS43 KIWX 241209
RWRIWX

KIWX WEATHER ROUNDUP
NATIONAL WEATHER SERVICE NORTHERN INDIANA
800 AM EDT MON APR 24 2017

NOTE: "FAIR" INDICATES FEW OR NO CLOUDS BELOW 12,000 FEET WITH NO
SIGNIFICANT WEATHER AND/OR OBSTRUCTIONS TO VISIBILITY.

* THESE STATIONS ARE NOT UNDER NWS QUALITY CONTROL. THEY ALSO MAY NOT
  REPORT WEATHER SUCH AS PRECIPITATION OR FOG.

INZ001>027-241300-
NORTHERN INDIANA

CITY           SKY/WX    TMP DP  RH WIND       PRES   REMARKS
GARY*          MOSUNNY   43  43 100 CALM      30.03S
VALPARAISO     SUNNY     48  37  65 NE5       30.03R
6HR MIN TEMP:  42; 6HR MAX TEMP:  50;

KNOX*          SUNNY     36  21  55 N5        30.02S
SOUTH BEND     SUNNY     43  35  73 E3        30.05R
6HR MIN TEMP:  37; 6HR MAX TEMP:  43;

ELKHART*       SUNNY     43  36  75 CALM      30.04R
GOSHEN         SUNNY     44  32  62 CALM      30.03S
6HR MIN TEMP:  38; 6HR MAX TEMP:  47;

WARSAW*        SUNNY     43  34  70 E6        30.03R
ROCHESTER*     SUNNY     43  37  81 CALM      30.02S
FORT WAYNE     MOSUNNY   46  32  58 E9        30.02S
6HR MIN TEMP:  40; 6HR MAX TEMP:  47;

PERU/GRISSOM   SUNNY     46  33  59 E6        29.99R
MARION*        SUNNY     45  32  61 NE7       30.01R

$$

INZ028>050-241300-
CENTRAL INDIANA

CITY           SKY/WX    TMP DP  RH WIND       PRES   REMARKS
LAFAYETTE      SUNNY     41  38  89 CALM      29.99S
6HR MIN TEMP:  38; 6HR MAX TEMP:  47;

KOKOMO*        SUNNY     45  34  65 E7        30.00S
6HR MIN TEMP:  39; 6HR MAX TEMP:  47;

MUNCIE*        SUNNY     46  35  65 NE3       29.99R
6HR MIN TEMP:  39; 6HR MAX TEMP:  49;

INDIANAPOLIS   MOSUNNY   49  35  58 NE8       29.96S
6HR MIN TEMP:  46; 6HR MAX TEMP:  51;


$$

MIZ043>046-050>051-056>058-064>065-071>073-077>080-241300-
SOUTHWEST LOWER MICHIGAN

CITY           SKY/WX    TMP DP  RH WIND       PRES   REMARKS
BATTLE CREEK   SUNNY     46  41  82 E5        30.06R
6HR MIN TEMP:  41; 6HR MAX TEMP:  50;

BENTON HARBOR  SUNNY     38  34  85 E5        30.03R
6HR MIN TEMP:  32; 6HR MAX TEMP:  39;

COLDWATER*     SUNNY     45  37  73 CALM      30.05R
6HR MIN TEMP:  38; 6HR MAX TEMP:  45;

HILLSDALE*     SUNNY     45  34  65 E6        30.05R
HOLLAND        SUNNY     44  39  82 E7        30.06R
6HR MIN TEMP:  40; 6HR MAX TEMP:  47;

GRAND RAPIDS   MOSUNNY   43  39  86 E9        30.07R
6HR MIN TEMP:  41; 6HR MAX TEMP:  46;

KALAMAZOO      SUNNY     44  41  89 CALM      30.06R
6HR MIN TEMP:  40; 6HR MAX TEMP:  47;

STURGIS*       SUNNY     49  32  51 E7        30.04S
6HR MIN TEMP:  38; 6HR MAX TEMP:  49;

THREE RIVERS*  FAIR      41  37  87 CALM      30.06R
6HR MIN TEMP:  37; 6HR MAX TEMP:  44;


$$

OHZ001>008-015>018-024>025-241300-
NORTHWEST OHIO

CITY           SKY/WX    TMP DP  RH WIND       PRES   REMARKS
DEFIANCE       SUNNY     44  38  79 NE7       30.04S
6HR MIN TEMP:  37; 6HR MAX TEMP:  44;

FINDLAY        SUNNY     48  36  63 NE12      30.02R
6HR MIN TEMP:  43; 6HR MAX TEMP:  48;

TOLEDO EXPRESS SUNNY     44  41  89 NE7       30.05S
6HR MIN TEMP:  40; 6HR MAX TEMP:  44;

TOLEDO METCALF MOSUNNY   48  45  89 NE9       30.06R
6HR MIN TEMP:  44; 6HR MAX TEMP:  49;

LIMA           SUNNY     47  30  51 NE6       30.00R
6HR MIN TEMP:  41; 6HR MAX TEMP:  47;


$$



USA.gov is the U.S. government's official web portal to all federal, state and local government web resources and services.